MUOS-3

Last updated on Thu Nov 21 2024 00:02:42 GMT+0000 (Coordinated Universal Time)

1 40374U 15002A 24325.29210736 -.00000127 00000+0 00000+0 0 9991 2 40374 3.4842 38.0314 0059508 181.0184 290.4884 1.00271297 35833
UTC large
Height (km)
Speed (km/s)
/
Latitude / Longitude
Inclination (degrees)
Orbital Period (minutes)
Azimuth
Elevation
Range (km)
Doppler Factor

Next 0 passes for location: London (51.5072 / 0.1276)

Sorry there are no passes over London.